When you browse on this site, cookies collect data to enhance your experience and personalize the content and advertising you see.
Visit our Privacy Policy to learn more. By continuing to use the site, you agree to this use of cookies and data.
  • en France
  • Liste des pays
  • À 7 jours
  • Température de l'eau
  • Carte météo
  • Widgets météo
  • user-avatar
    Se connecter

    Météo par heure à Borovets

    Ce jour, 21 Août, Mercredi

    Heure Température Précipitation Vent Pression Humidité
    00:00 +20°C° 0 mm 1 m/s 714 mmHg 50%
    01:00 +19°C° 0 mm 1 m/s 714 mmHg 52%
    02:00 +19°C° 0 mm 1 m/s 714 mmHg 53%
    03:00 +16°C° 0 mm 0 m/s 714 mmHg 56%
    04:00 +16°C° 0 mm 0 m/s 714 mmHg 58%
    05:00 +15°C° 0 mm 0 m/s 714 mmHg 61%
    06:00 +18°C° 0 mm 0 m/s 714 mmHg 56%
    07:00 +20°C° 0 mm 0 m/s 714 mmHg 50%
    08:00 +22°C° 0 mm 0 m/s 715 mmHg 45%
    09:00 +26°C° 0 mm 1 m/s 715 mmHg 39%
    10:00 +28°C° 0 mm 2 m/s 715 mmHg 34%
    11:00 +30°C° 0 mm 2 m/s 715 mmHg 28%
    12:00 +31°C° 0 mm 3 m/s 715 mmHg 27%
    13:00 +33°C° 0 mm 3 m/s 714 mmHg 25%
    14:00 +33°C° 0 mm 4 m/s 714 mmHg 24%
    15:00 +33°C° 0 mm 4 m/s 714 mmHg 25%
    16:00 +33°C° 0 mm 4 m/s 713 mmHg 25%
    17:00 +32°C° 0 mm 4 m/s 713 mmHg 26%
    18:00 +29°C° 0 mm 3 m/s 713 mmHg 31%
    19:00 +26°C° 0 mm 2 m/s 713 mmHg 35%
    20:00 +23°C° 0 mm 1 m/s 713 mmHg 40%
    21:00 +23°C° 0 mm 1 m/s 713 mmHg 41%
    22:00 +22°C° 0 mm 1 m/s 713 mmHg 43%
    23:00 +21°C° 0 mm 1 m/s 713 mmHg 44%

    Demain, 22 Août, Jeudi

    Heure Température Précipitation Vent Pression Humidité
    00:00 +21°C° 0 mm 1 m/s 713 mmHg 45%
    01:00 +19°C° 0 mm 0 m/s 714 mmHg 46%
    02:00 +18°C° 0 mm 0 m/s 714 mmHg 48%
    03:00 +18°C° 0 mm 0 m/s 714 mmHg 49%
    04:00 +18°C° 0 mm 0 m/s 713 mmHg 50%
    05:00 +17°C° 0 mm 0 m/s 713 mmHg 50%
    06:00 +20°C° 0 mm 0 m/s 714 mmHg 47%
    07:00 +22°C° 0 mm 0 m/s 715 mmHg 43%
    08:00 +26°C° 0 mm 1 m/s 715 mmHg 39%
    09:00 +28°C° 0 mm 1 m/s 715 mmHg 36%
    10:00 +30°C° 0 mm 2 m/s 715 mmHg 32%
    11:00 +33°C° 0 mm 3 m/s 716 mmHg 29%
    12:00 +33°C° 0 mm 3 m/s 715 mmHg 29%
    13:00 +33°C° 0 mm 3 m/s 715 mmHg 30%
    14:00 +33°C° 0 mm 4 m/s 715 mmHg 30%
    15:00 +33°C° 0 mm 4 m/s 714 mmHg 31%
    16:00 +33°C° 0 mm 3 m/s 714 mmHg 32%
    17:00 +33°C° 0 mm 3 m/s 714 mmHg 33%
    18:00 +30°C° 0 mm 3 m/s 714 mmHg 38%
    19:00 +27°C° 0 mm 2 m/s 714 mmHg 43%
    20:00 +25°C° 0 mm 2 m/s 714 mmHg 49%
    21:00 +24°C° 0 mm 1 m/s 714 mmHg 51%
    22:00 +24°C° 0 mm 1 m/s 715 mmHg 52%
    23:00 +23°C° 0 mm 1 m/s 715 mmHg 54%

    Après-demain, 23 Août, Vendredi

    Heure Température Précipitation Vent Pression Humidité
    00:00 +22°C° 0 mm 1 m/s 715 mmHg 56%
    01:00 +22°C° 0 mm 1 m/s 715 mmHg 58%
    02:00 +21°C° 0 mm 1 m/s 715 mmHg 60%
    03:00 +21°C° 0 mm 1 m/s 715 mmHg 61%
    04:00 +19°C° 0 mm 0 m/s 715 mmHg 63%
    05:00 +18°C° 0 mm 0 m/s 715 mmHg 64%
    06:00 +20°C° 0 mm 0 m/s 715 mmHg 59%
    07:00 +24°C° 0 mm 1 m/s 716 mmHg 54%
    08:00 +26°C° 0 mm 1 m/s 716 mmHg 48%
    09:00 +28°C° 0 mm 2 m/s 716 mmHg 43%
    10:00 +30°C° 0 mm 3 m/s 716 mmHg 37%
    11:00 +33°C° 0 mm 4 m/s 717 mmHg 32%
    12:00 +33°C° 0 mm 4 m/s 716 mmHg 31%
    13:00 +33°C° 0 mm 4 m/s 716 mmHg 31%
    14:00 +34°C° 0 mm 5 m/s 715 mmHg 30%
    15:00 +33°C° 0 mm 5 m/s 715 mmHg 31%
    16:00 +33°C° 0 mm 4 m/s 715 mmHg 32%
    17:00 +32°C° 0 mm 4 m/s 714 mmHg 33%
    18:00 +29°C° 0 mm 3 m/s 714 mmHg 38%
    19:00 +27°C° 0 mm 3 m/s 714 mmHg 44%
    20:00 +24°C° 0 mm 2 m/s 714 mmHg 50%
    21:00 +24°C° 0 mm 2 m/s 714 mmHg 52%
    22:00 +23°C° 0 mm 1 m/s 714 mmHg 54%
    23:00 +22°C° 0 mm 1 m/s 715 mmHg 56%

    24 Août, Samedi

    Heure Température Précipitation Vent Pression Humidité
    00:00 +22°C° 0 mm 1 m/s 715 mmHg 57%
    01:00 +22°C° 0 mm 1 m/s 715 mmHg 59%
    02:00 +21°C° 0 mm 1 m/s 715 mmHg 60%
    03:00 +21°C° 0 mm 1 m/s 714 mmHg 62%
    04:00 +20°C° 0 mm 1 m/s 714 mmHg 65%
    05:00 +20°C° 0 mm 1 m/s 714 mmHg 68%
    06:00 +22°C° 0 mm 1 m/s 715 mmHg 62%
    07:00 +23°C° 0 mm 1 m/s 715 mmHg 57%
    08:00 +25°C° 0 mm 1 m/s 715 mmHg 52%
    09:00 +27°C° 0 mm 2 m/s 715 mmHg 46%
    10:00 +29°C° 0 mm 3 m/s 716 mmHg 40%
    11:00 +32°C° 0 mm 4 m/s 716 mmHg 35%
    12:00 +32°C° 0 mm 4 m/s 715 mmHg 34%
    13:00 +33°C° 0 mm 4 m/s 715 mmHg 32%
    14:00 +34°C° 0 mm 5 m/s 714 mmHg 31%
    15:00 +33°C° 0 mm 4 m/s 714 mmHg 32%
    16:00 +33°C° 0 mm 4 m/s 714 mmHg 33%
    17:00 +32°C° 0 mm 4 m/s 713 mmHg 34%
    18:00 +29°C° 0 mm 4 m/s 713 mmHg 40%
    19:00 +27°C° 0 mm 3 m/s 713 mmHg 46%
    20:00 +25°C° 0 mm 3 m/s 713 mmHg 52%
    21:00 +24°C° 0 mm 2 m/s 713 mmHg 53%
    22:00 +24°C° 0 mm 2 m/s 713 mmHg 55%
    23:00 +23°C° 0 mm 1 m/s 713 mmHg 57%

    25 Août, Dimanche

    Heure Température Précipitation Vent Pression Humidité
    00:00 +22°C° 0 mm 1 m/s 713 mmHg 61%
    01:00 +22°C° 0 mm 1 m/s 713 mmHg 64%
    02:00 +21°C° 0 mm 1 m/s 713 mmHg 67%
    03:00 +21°C° 0 mm 1 m/s 713 mmHg 70%
    04:00 +20°C° 0 mm 1 m/s 713 mmHg 73%
    05:00 +20°C° 0 mm 1 m/s 713 mmHg 76%
    06:00 +22°C° 0 mm 1 m/s 713 mmHg 69%
    07:00 +24°C° 0 mm 1 m/s 714 mmHg 62%
    08:00 +26°C° 0 mm 1 m/s 714 mmHg 55%
    09:00 +28°C° 0 mm 1 m/s 714 mmHg 48%
    10:00 +29°C° 0 mm 2 m/s 714 mmHg 42%
    11:00 +31°C° 0 mm 3 m/s 714 mmHg 35%
    12:00 +33°C° 0 mm 3 m/s 714 mmHg 33%
    13:00 +34°C° 0 mm 4 m/s 713 mmHg 31%
    14:00 +34°C° 0 mm 4 m/s 713 mmHg 29%
    15:00 +34°C° 0 mm 4 m/s 713 mmHg 30%
    16:00 +34°C° 0 mm 4 m/s 712 mmHg 30%
    17:00 +33°C° 0 mm 4 m/s 712 mmHg 30%
    18:00 +30°C° 0 mm 3 m/s 712 mmHg 38%
    19:00 +27°C° 0 mm 2 m/s 712 mmHg 46%
    20:00 +24°C° 0 mm 1 m/s 712 mmHg 54%
    21:00 +23°C° 0 mm 1 m/s 712 mmHg 59%
    22:00 +23°C° 0 mm 2 m/s 713 mmHg 65%
    23:00 +21°C° 0 mm 2 m/s 713 mmHg 71%

    26 Août, Lundi

    Heure Température Précipitation Vent Pression Humidité
    00:00 +20°C° 0 mm 2 m/s 713 mmHg 75%
    01:00 +20°C° 0 mm 2 m/s 713 mmHg 80%
    02:00 +20°C° 0 mm 1 m/s 713 mmHg 85%
    03:00 +20°C° 0 mm 1 m/s 713 mmHg 85%
    04:00 +20°C° 0 mm 1 m/s 713 mmHg 85%
    05:00 +20°C° 0 mm 1 m/s 713 mmHg 85%
    06:00 +21°C° 0 mm 1 m/s 713 mmHg 78%
    07:00 +23°C° 0 mm 1 m/s 713 mmHg 71%
    08:00 +24°C° 0 mm 1 m/s 714 mmHg 64%
    09:00 +26°C° 0 mm 1 m/s 714 mmHg 54%
    10:00 +29°C° 0 mm 2 m/s 714 mmHg 44%
    11:00 +31°C° 0 mm 3 m/s 715 mmHg 34%
    12:00 +33°C° 0 mm 3 m/s 714 mmHg 32%
    13:00 +33°C° 0 mm 4 m/s 714 mmHg 30%
    14:00 +34°C° 0 mm 5 m/s 713 mmHg 27%
    15:00 +33°C° 0 mm 4 m/s 713 mmHg 28%
    16:00 +33°C° 0 mm 4 m/s 713 mmHg 28%
    17:00 +33°C° 0 mm 4 m/s 713 mmHg 28%
    18:00 +29°C° 0 mm 3 m/s 713 mmHg 34%
    19:00 +27°C° 0 mm 2 m/s 713 mmHg 39%
    20:00 +24°C° 0 mm 1 m/s 713 mmHg 45%
    21:00 +24°C° 0 mm 1 m/s 713 mmHg 46%
    22:00 +23°C° 0 mm 1 m/s 713 mmHg 47%
    23:00 +21°C° 0 mm 0 m/s 713 mmHg 49%
    Voir plus